• In Italy
  • List of Countries
  • For 7 days
  • Water Temperature
  • Satellite Maps
  • Weather Map
  • Weather Widgets
  • user-avatar
    Login

    Hourly Weather La Rioja

    Today, 18 December, Monday

    Time Temperature Precipitation Wind Pressure Humidity
    00:00 +24°C° 0 mm 2 mps 719 mmHg 28%
    01:00 +23°C° 0 mm 2 mps 719 mmHg 29%
    02:00 +23°C° 0 mm 2 mps 718 mmHg 30%
    03:00 +21°C° 0 mm 2 mps 718 mmHg 30%
    04:00 +21°C° 0 mm 2 mps 718 mmHg 31%
    05:00 +21°C° 0 mm 2 mps 717 mmHg 31%
    06:00 +21°C° 0 mm 2 mps 717 mmHg 30%
    07:00 +23°C° 0 mm 2 mps 717 mmHg 28%
    08:00 +24°C° 0 mm 2 mps 717 mmHg 27%
    09:00 +25°C° 0 mm 3 mps 717 mmHg 26%
    10:00 +27°C° 0 mm 3 mps 716 mmHg 25%
    11:00 +28°C° 0 mm 3 mps 716 mmHg 24%
    12:00 +30°C° 0 mm 4 mps 715 mmHg 23%
    13:00 +32°C° 0 mm 4 mps 714 mmHg 22%
    14:00 +33°C° 0 mm 4 mps 713 mmHg 21%
    15:00 +33°C° 0 mm 4 mps 713 mmHg 21%
    16:00 +34°C° 0 mm 4 mps 712 mmHg 21%
    17:00 +34°C° 0 mm 4 mps 712 mmHg 22%
    18:00 +33°C° 0 mm 4 mps 712 mmHg 24%
    19:00 +32°C° 0 mm 4 mps 713 mmHg 27%
    20:00 +29°C° 0 mm 4 mps 713 mmHg 29%
    21:00 +29°C° 0 mm 3 mps 714 mmHg 32%
    22:00 +28°C° 0 mm 3 mps 714 mmHg 34%
    23:00 +27°C° 0 mm 2 mps 715 mmHg 37%

    Tomorrow, 19 December, Tuesday

    Time Temperature Precipitation Wind Pressure Humidity
    00:00 +27°C° 0 mm 2 mps 714 mmHg 39%
    01:00 +26°C° 0 mm 2 mps 714 mmHg 40%
    02:00 +26°C° 0 mm 2 mps 714 mmHg 42%
    03:00 +25°C° 0 mm 2 mps 714 mmHg 44%
    04:00 +25°C° 0 mm 2 mps 714 mmHg 47%
    05:00 +24°C° 0 mm 1 mps 714 mmHg 49%
    06:00 +26°C° 0 mm 2 mps 714 mmHg 45%
    07:00 +27°C° 0 mm 2 mps 714 mmHg 42%
    08:00 +28°C° 0 mm 2 mps 715 mmHg 38%
    09:00 +30°C° 0 mm 2 mps 714 mmHg 34%
    10:00 +31°C° 0 mm 2 mps 714 mmHg 31%
    11:00 +34°C° 0 mm 2 mps 714 mmHg 27%
    12:00 +35°C° 0 mm 3 mps 713 mmHg 25%
    13:00 +36°C° 0 mm 3 mps 713 mmHg 24%
    14:00 +37°C° 0 mm 4 mps 712 mmHg 22%
    15:00 +37°C° 0 mm 4 mps 712 mmHg 23%
    16:00 +39°C° 0 mm 5 mps 712 mmHg 23%
    17:00 +39°C° 0 mm 6 mps 712 mmHg 24%
    18:00 +36°C° 0 mm 6 mps 712 mmHg 32%
    19:00 +34°C° 0 mm 6 mps 713 mmHg 41%
    20:00 +32°C° 0 mm 6 mps 713 mmHg 49%
    21:00 +30°C° 0 mm 5 mps 714 mmHg 56%
    22:00 +29°C° 0 mm 4 mps 714 mmHg 64%
    23:00 +28°C° 0 mm 3 mps 715 mmHg 71%

    Day after tomorrow, 20 December, Wednesday

    Time Temperature Precipitation Wind Pressure Humidity
    00:00 +27°C° 0 mm 3 mps 714 mmHg 73%
    01:00 +27°C° 0 mm 2 mps 714 mmHg 75%
    02:00 +26°C° 0 mm 2 mps 713 mmHg 77%
    03:00 +26°C° 0 mm 2 mps 713 mmHg 78%
    04:00 +26°C° 0 mm 2 mps 713 mmHg 78%
    05:00 +25°C° 0 mm 2 mps 713 mmHg 79%
    06:00 +26°C° 0 mm 2 mps 713 mmHg 75%
    07:00 +27°C° 0 mm 1 mps 713 mmHg 71%
    08:00 +28°C° 0 mm 1 mps 713 mmHg 67%
    09:00 +29°C° 0 mm 2 mps 713 mmHg 59%
    10:00 +31°C° 0 mm 2 mps 713 mmHg 52%
    11:00 +34°C° 0 mm 2 mps 712 mmHg 44%
    12:00 +35°C° 0.2 mm 3 mps 712 mmHg 41%
    13:00 +36°C° 0.2 mm 3 mps 711 mmHg 37%
    14:00 +37°C° 0.2 mm 3 mps 710 mmHg 34%
    15:00 +38°C° 0.4 mm 4 mps 709 mmHg 33%
    16:00 +38°C° 0.4 mm 4 mps 709 mmHg 32%
    17:00 +38°C° 0.4 mm 4 mps 708 mmHg 30%
    18:00 +37°C° 0.4 mm 4 mps 709 mmHg 34%
    19:00 +36°C° 0.4 mm 4 mps 709 mmHg 38%
    20:00 +35°C° 0.4 mm 4 mps 710 mmHg 41%
    21:00 +34°C° 0.3 mm 4 mps 710 mmHg 44%
    22:00 +33°C° 0.3 mm 3 mps 711 mmHg 47%
    23:00 +31°C° 0.3 mm 3 mps 711 mmHg 51%

    21 December, Thursday

    Time Temperature Precipitation Wind Pressure Humidity
    00:00 +30°C° 0 mm 2 mps 711 mmHg 52%
    01:00 +30°C° 0 mm 2 mps 710 mmHg 54%
    02:00 +29°C° 0 mm 1 mps 710 mmHg 56%
    03:00 +29°C° 0 mm 1 mps 710 mmHg 57%
    04:00 +28°C° 0 mm 1 mps 710 mmHg 58%
    05:00 +28°C° 0 mm 1 mps 710 mmHg 60%
    06:00 +29°C° 0 mm 1 mps 710 mmHg 57%
    07:00 +30°C° 0 mm 2 mps 711 mmHg 54%
    08:00 +31°C° 0 mm 2 mps 712 mmHg 52%
    09:00 +32°C° 0 mm 2 mps 712 mmHg 47%
    10:00 +34°C° 0 mm 2 mps 712 mmHg 43%
    11:00 +36°C° 0 mm 3 mps 712 mmHg 39%
    12:00 +37°C° 0.5 mm 3 mps 711 mmHg 36%
    13:00 +38°C° 0.5 mm 3 mps 710 mmHg 34%
    14:00 +40°C° 0.5 mm 4 mps 709 mmHg 31%
    15:00 +40°C° 0.4 mm 4 mps 709 mmHg 31%
    16:00 +40°C° 0.4 mm 4 mps 708 mmHg 31%
    17:00 +40°C° 0.4 mm 5 mps 708 mmHg 31%
    18:00 +38°C° 0.6 mm 4 mps 708 mmHg 36%
    19:00 +36°C° 0.6 mm 4 mps 708 mmHg 40%
    20:00 +35°C° 0.6 mm 4 mps 708 mmHg 44%
    21:00 +34°C° 0.8 mm 3 mps 708 mmHg 47%
    22:00 +33°C° 0.8 mm 3 mps 709 mmHg 50%
    23:00 +32°C° 0.8 mm 2 mps 709 mmHg 53%

    22 December, Friday

    Time Temperature Precipitation Wind Pressure Humidity
    00:00 +31°C° 0.3 mm 2 mps 708 mmHg 54%
    01:00 +31°C° 0.3 mm 2 mps 708 mmHg 54%
    02:00 +30°C° 0.3 mm 2 mps 707 mmHg 55%
    03:00 +30°C° 0.1 mm 2 mps 707 mmHg 55%
    04:00 +29°C° 0.1 mm 1 mps 707 mmHg 55%
    05:00 +29°C° 0.1 mm 1 mps 707 mmHg 55%
    06:00 +30°C° 0.1 mm 1 mps 707 mmHg 50%
    07:00 +32°C° 0.1 mm 1 mps 707 mmHg 45%
    08:00 +31°C° 0.1 mm 0 mps 708 mmHg 40%
    09:00 +34°C° 0 mm 1 mps 708 mmHg 36%
    10:00 +37°C° 0 mm 2 mps 708 mmHg 32%
    11:00 +39°C° 0 mm 3 mps 708 mmHg 28%
    12:00 +40°C° 0 mm 4 mps 707 mmHg 28%
    13:00 +41°C° 0 mm 6 mps 707 mmHg 28%
    14:00 +43°C° 0 mm 7 mps 707 mmHg 27%
    15:00 +41°C° 0.9 mm 7 mps 707 mmHg 30%
    16:00 +40°C° 0.9 mm 7 mps 707 mmHg 33%
    17:00 +39°C° 0.9 mm 8 mps 707 mmHg 36%
    18:00 +38°C° 2.3 mm 7 mps 708 mmHg 41%
    19:00 +35°C° 2.3 mm 6 mps 709 mmHg 46%
    20:00 +34°C° 2.3 mm 5 mps 709 mmHg 51%
    21:00 +32°C° 2.8 mm 5 mps 710 mmHg 58%
    22:00 +29°C° 2.8 mm 5 mps 711 mmHg 64%
    23:00 +28°C° 2.8 mm 5 mps 712 mmHg 71%

    23 December, Saturday

    Time Temperature Precipitation Wind Pressure Humidity
    00:00 +27°C° 3.4 mm 5 mps 712 mmHg 72%
    01:00 +27°C° 3.4 mm 4 mps 712 mmHg 73%
    02:00 +26°C° 3.4 mm 4 mps 712 mmHg 74%
    03:00 +26°C° 1.3 mm 4 mps 713 mmHg 72%
    04:00 +26°C° 1.3 mm 3 mps 714 mmHg 70%
    05:00 +26°C° 1.3 mm 3 mps 714 mmHg 69%
    06:00 +26°C° 0.2 mm 3 mps 715 mmHg 64%
    07:00 +26°C° 0.2 mm 3 mps 716 mmHg 58%
    08:00 +27°C° 0.2 mm 2 mps 716 mmHg 53%
    09:00 +28°C° 0 mm 3 mps 716 mmHg 49%
    10:00 +29°C° 0 mm 3 mps 716 mmHg 45%
    11:00 +30°C° 0 mm 3 mps 716 mmHg 41%
    12:00 +32°C° 0.1 mm 4 mps 715 mmHg 40%
    13:00 +32°C° 0.1 mm 4 mps 714 mmHg 38%
    14:00 +33°C° 0.1 mm 4 mps 713 mmHg 36%
    15:00 +33°C° 0 mm 5 mps 713 mmHg 34%
    16:00 +34°C° 0 mm 5 mps 712 mmHg 32%
    17:00 +34°C° 0 mm 5 mps 711 mmHg 30%
    18:00 +33°C° 0 mm 4 mps 712 mmHg 30%
    19:00 +32°C° 0 mm 4 mps 712 mmHg 31%
    20:00 +30°C° 0 mm 3 mps 712 mmHg 32%
    21:00 +29°C° 0 mm 3 mps 713 mmHg 33%
    22:00 +28°C° 0 mm 3 mps 713 mmHg 35%
    23:00 +28°C° 0 mm 3 mps 714 mmHg 37%
    Show more